QPF
0.00 0.00 0.00 0.00 0.00 0.00 0.00 0.00 0.01 0.01 0.00 0.00 0.01 0.00 0.01 0.01 0.01 0.02 0.02 0.02 0.02 0.03 0.04 0.05 0.05 0.06 0.09 0.10 0.08 0.09 0.11 0.11 0.10 0.09 0.11 0.11 0.11 0.11 0.11 0.11 0.11 0.09 0.08 0.08
0.00 0.00 0.00 0.00 0.00 0.00 0.00 0.00 0.00 0.00 0.01 0.01 0.01 0.00 0.00 0.01 0.01 0.01 0.02 0.02 0.03 0.03 0.03 0.05 0.05 0.06 0.08 0.09 0.08 0.09 0.09 0.11 0.11 0.10 0.09 0.09 0.08 0.09 0.10 0.10 0.11 0.10 0.10 0.09
0.00 0.00 0.00 0.00 0.00 0.00 0.00 0.00 0.00 0.00 0.00 0.00 0.01 0.00 0.00 0.00 0.00 0.00 0.00 0.01 0.02 0.02 0.02 0.03 0.04 0.06 0.06 0.08 0.08 0.08 0.09 0.10 0.11 0.11 0.09 0.07 0.06 0.07 0.09 0.09 0.10 0.10 0.10 0.11
0.00 0.00 0.00 0.00 0.00 0.00 0.00 0.00 0.00 0.00 0.00 0.00 0.00 0.00 0.00 0.00 0.00 0.00 0.00 0.00 0.01 0.02 0.02 0.02 0.02 0.03 0.04 0.06 0.07 0.07 0.08 0.09 0.10 0.10 0.08 0.07 0.06 0.06 0.08 0.08 0.07 0.07 0.08 0.09
0.00 0.00 0.00 0.00 0.00 0.00 0.00 0.00 0.00 0.00 0.00 0.00 0.00 0.00 0.00 0.00 0.00 0.00 0.00 0.00 0.01 0.01 0.01 0.01 0.01 0.01 0.02 0.02 0.04 0.05 0.06 0.06 0.06 0.06 0.05 0.05 0.05 0.05 0.06 0.07 0.06 0.06 0.06 0.08
0.00 0.00 0.00 0.00 0.00 0.00 0.00 0.00 0.00 0.00 0.00 0.00 0.00 0.00 0.00 0.00 0.00 0.00 0.00 0.00 0.00 0.00 0.01 0.01 0.01 0.01 0.01 0.01 0.01 0.02 0.03 0.03 0.03 0.03 0.03 0.04 0.04 0.04 0.05 0.06 0.05 0.04 0.04 0.05
0.00 0.00 0.00 0.00 0.00 0.00 0.00 0.00 0.00 0.00 0.00 0.00 0.00 0.00 0.00 0.00 0.00 0.00 0.00 0.00 0.00 0.00 0.00 0.01 0.01 0.00 0.00 0.00 0.01 0.01 0.01 0.02 0.02 0.01 0.02 0.02 0.03 0.03 0.04 0.05 0.04 0.03 0.03 0.03
0.00 0.00 0.00 0.00 0.00 0.00 0.00 0.00 0.00 0.00 0.00 0.00 0.00 0.00 0.00 0.00 0.00 0.00 0.00 0.00 0.00 0.00 0.00 0.00 0.01 0.01 0.00 0.00 0.00 0.01 0.00 0.01 0.01 0.01 0.01 0.02 0.02 0.02 0.04 0.04 0.03 0.03 0.02 0.02
0.00 0.00 0.00 0.00 0.00 0.00 0.00 0.00 0.00 0.00 0.00 0.00 0.00 0.00 0.00 0.00 0.00 0.00 0.00 0.00 0.00 0.00 0.00 0.00 0.00 0.00 0.00 0.00 0.00 0.00 0.00 0.00 0.00 0.00 0.01 0.01 0.02 0.02 0.03 0.04 0.04 0.04 0.03 0.02
0.00 0.00 0.00 0.00 0.00 0.00 0.00 0.00 0.00 0.00 0.00 0.00 0.00 0.00 0.00 0.00 0.00 0.00 0.00 0.00 0.00 0.00 0.00 0.00 0.00 0.00 0.00 0.00 0.00 0.00 0.00 0.00 0.00 0.00 0.00 0.01 0.01 0.02 0.02 0.03 0.04 0.04 0.04 0.03
0.00 0.00 0.00 0.00 0.00 0.00 0.00 0.00 0.00 0.00 0.00 0.00 0.00 0.00 0.00 0.00 0.00 0.00 0.00 0.00 0.00 0.00 0.00 0.00 0.00 0.01 0.00 0.00 0.00 0.00 0.00 0.00 0.00 0.00 0.00 0.00 0.01 0.01 0.02 0.03 0.03 0.05 0.05 0.05
0.00 0.00 0.00 0.00 0.00 0.00 0.00 0.00 0.00 0.00 0.00 0.00 0.00 0.00 0.00 0.00 0.00 0.00 0.00 0.00 0.00 0.00 0.00 0.00 0.00 0.00 0.00 0.00 0.00 0.00 0.00 0.00 0.00 0.00 0.00 0.00 0.00 0.01 0.01 0.02 0.02 0.03 0.05 0.05
0.00 0.00 0.00 0.00 0.00 0.00 0.00 0.00 0.00 0.00 0.00 0.00 0.00 0.00 0.00 0.00 0.00 0.00 0.00 0.00 0.00 0.00 0.00 0.00 0.00 0.00 0.00 0.00 0.00 0.00 0.00 0.00 0.00 0.00 0.00 0.00 0.00 0.00 0.01 0.01 0.01 0.02 0.03 0.04
0.00 0.00 0.00 0.00 0.00 0.00 0.00 0.00 0.00 0.00 0.00 0.00 0.00 0.00 0.00 0.00 0.00 0.00 0.00 0.00 0.00 0.00 0.00 0.00 0.00 0.00 0.00 0.00 0.00 0.00 0.00 0.00 0.00 0.00 0.00 0.00 0.00 0.00 0.01 0.01 0.01 0.02 0.03 0.04
0.00 0.00 0.00 0.00 0.00 0.00 0.00 0.00 0.00 0.00 0.00 0.00 0.00 0.00 0.00 0.00 0.00 0.00 0.00 0.00 0.00 0.00 0.00 0.00 0.00 0.00 0.00 0.00 0.00 0.00 0.00 0.00 0.00 0.00 0.00 0.00 0.00 0.00 0.00 0.01 0.01 0.01 0.02 0.04
0.00 0.00 0.00 0.00 0.00 0.00 0.00 0.00 0.00 0.00 0.00 0.00 0.00 0.00 0.00 0.00 0.00 0.00 0.00 0.00 0.00 0.00 0.00 0.00 0.00 0.00 0.00 0.00 0.00 0.00 0.00 0.00 0.00 0.00 0.00 0.00 0.01 0.01 0.00 0.01 0.01 0.01 0.02 0.03
0.00 0.00 0.00 0.00 0.00 0.00 0.00 0.00 0.00 0.00 0.00 0.00 0.00 0.00 0.00 0.00 0.00 0.00 0.00 0.00 0.00 0.00 0.00 0.00 0.00 0.00 0.00 0.00 0.00 0.00 0.00 0.00 0.00 0.00 0.00 0.01 0.01 0.01 0.01 0.01 0.01 0.01 0.02 0.03
0.00 0.00 0.00 0.00 0.00 0.00 0.00 0.00 0.00 0.00 0.00 0.00 0.00 0.00 0.00 0.00 0.00 0.00 0.00 0.00 0.00 0.00 0.00 0.00 0.00 0.00 0.00 0.00 0.00 0.00 0.00 0.00 0.00 0.00 0.00 0.01 0.01 0.01 0.01 0.01 0.01 0.01 0.02 0.02
0.00 0.00 0.00 0.00 0.00 0.00 0.00 0.00 0.00 0.00 0.00 0.00 0.00 0.00 0.00 0.00 0.00 0.00 0.00 0.00 0.00 0.00 0.00 0.00 0.00 0.00 0.00 0.00 0.00 0.00 0.00 0.00 0.00 0.00 0.00 0.00 0.01 0.01 0.01 0.01 0.01 0.01 0.02 0.02
0.00 0.00 0.00 0.00 0.00 0.00 0.00 0.00 0.00 0.00 0.00 0.00 0.00 0.00 0.00 0.00 0.00 0.00 0.00 0.00 0.00 0.00 0.00 0.00 0.00 0.00 0.00 0.00 0.00 0.00 0.00 0.00 0.00 0.00 0.00 0.00 0.01 0.01 0.01 0.01 0.01 0.02 0.02 0.02
0.00 0.00 0.00 0.00 0.00 0.00 0.00 0.00 0.00 0.00 0.00 0.00 0.00 0.00 0.00 0.00 0.00 0.00 0.00 0.00 0.00 0.00 0.00 0.00 0.00 0.00 0.00 0.00 0.00 0.00 0.00 0.00 0.00 0.00 0.00 0.01 0.01 0.01 0.01 0.01 0.01 0.01 0.02 0.02
0.00 0.00 0.00 0.00 0.00 0.00 0.00 0.00 0.00 0.00 0.00 0.00 0.00 0.00 0.00 0.00 0.00 0.00 0.00 0.00 0.00 0.00 0.00 0.00 0.00 0.00 0.00 0.00 0.00 0.00 0.00 0.00 0.00 0.00 0.01 0.01 0.01 0.01 0.01 0.01 0.01 0.01 0.02 0.02
0.00 0.00 0.00 0.00 0.00 0.00 0.00 0.00 0.00 0.00 0.00 0.00 0.00 0.00 0.00 0.00 0.00 0.00 0.00 0.00 0.00 0.00 0.00 0.00 0.00 0.00 0.00 0.00 0.00 0.00 0.00 0.00 0.00 0.00 0.01 0.01 0.01 0.01 0.01 0.01 0.01 0.01 0.01 0.02
0.00 0.00 0.00 0.00 0.00 0.00 0.00 0.00 0.00 0.00 0.00 0.00 0.00 0.00 0.00 0.00 0.00 0.00 0.00 0.00 0.00 0.00 0.00 0.00 0.00 0.00 0.01 0.01 0.01 0.01 0.01 0.01 0.01 0.00 0.01 0.01 0.01 0.01 0.01 0.01 0.01 0.01 0.01 0.02
0.00 0.00 0.00 0.00 0.00 0.00 0.00 0.00 0.00 0.00 0.00 0.00 0.00 0.00 0.00 0.00 0.00 0.00 0.00 0.00 0.00 0.00 0.00 0.00 0.01 0.01 0.01 0.01 0.01 0.01 0.01 0.01 0.01 0.01 0.01 0.01 0.01 0.01 0.01 0.01 0.01 0.01 0.01 0.02
0.00 0.00 0.00 0.00 0.00 0.00 0.00 0.00 0.00 0.00 0.00 0.00 0.00 0.00 0.00 0.00 0.00 0.00 0.00 0.00 0.00 0.01 0.01 0.01 0.01 0.01 0.01 0.01 0.01 0.01 0.01 0.01 0.01 0.01 0.01 0.01 0.01 0.01 0.01 0.01 0.02 0.02 0.02 0.02
0.00 0.00 0.00 0.00 0.00 0.00 0.00 0.00 0.00 0.00 0.00 0.00 0.00 0.00 0.00 0.00 0.00 0.00 0.00 0.00 0.01 0.01 0.01 0.01 0.01 0.01 0.01 0.01 0.01 0.01 0.01 0.01 0.01 0.01 0.01 0.01 0.01 0.01 0.01 0.01 0.02 0.02 0.02 0.02
MSLP
1020.15 1019.81 1019.52 1019.28 1019.09 1018.91 1018.70 1018.42 1018.04 1017.55 1016.98 1016.37 1015.79 1015.33 1015.06 1015.03 1015.26 1015.73 1016.39 1017.16 1017.96 1018.68 1019.26 1019.64 1019.81 1019.77 1019.55 1019.20 1018.77 1018.30 1017.81 1017.32 1016.82 1016.31 1015.79 1015.23 1014.65 1014.04 1013.42 1012.80 1012.19 1011.59 1010.99 1010.39
1020.22 1019.77 1019.34 1018.94 1018.57 1018.23 1017.88 1017.51 1017.09 1016.62 1016.12 1015.62 1015.19 1014.88 1014.75 1014.83 1015.13 1015.64 1016.31 1017.07 1017.84 1018.54 1019.11 1019.50 1019.68 1019.68 1019.51 1019.21 1018.82 1018.37 1017.89 1017.40 1016.88 1016.35 1015.79 1015.20 1014.59 1013.96 1013.34 1012.72 1012.12 1011.55 1011.00 1010.45
1020.30 1019.76 1019.18 1018.61 1018.06 1017.54 1017.05 1016.58 1016.12 1015.67 1015.25 1014.88 1014.61 1014.46 1014.48 1014.69 1015.08 1015.64 1016.31 1017.05 1017.79 1018.45 1018.98 1019.35 1019.54 1019.56 1019.43 1019.17 1018.82 1018.41 1017.96 1017.47 1016.95 1016.41 1015.83 1015.21 1014.58 1013.93 1013.28 1012.65 1012.05 1011.49 1010.95 1010.42
1020.32 1019.68 1018.97 1018.24 1017.53 1016.85 1016.23 1015.68 1015.19 1014.77 1014.44 1014.20 1014.09 1014.11 1014.28 1014.61 1015.08 1015.68 1016.36 1017.07 1017.75 1018.35 1018.84 1019.17 1019.35 1019.38 1019.28 1019.06 1018.76 1018.39 1017.97 1017.51 1017.00 1016.46 1015.87 1015.25 1014.59 1013.93 1013.26 1012.62 1012.00 1011.42 1010.86 1010.32
1020.20 1019.46 1018.65 1017.80 1016.96 1016.16 1015.46 1014.85 1014.36 1013.99 1013.74 1013.63 1013.66 1013.84 1014.15 1014.58 1015.12 1015.75 1016.41 1017.08 1017.69 1018.23 1018.65 1018.95 1019.11 1019.14 1019.06 1018.88 1018.62 1018.30 1017.92 1017.50 1017.02 1016.49 1015.91 1015.29 1014.63 1013.95 1013.28 1012.61 1011.97 1011.36 1010.76 1010.18
1019.85 1019.05 1018.16 1017.24 1016.32 1015.48 1014.73 1014.12 1013.65 1013.35 1013.20 1013.21 1013.37 1013.66 1014.08 1014.59 1015.17 1015.80 1016.43 1017.04 1017.59 1018.05 1018.42 1018.67 1018.81 1018.84 1018.78 1018.64 1018.43 1018.15 1017.82 1017.44 1016.99 1016.48 1015.92 1015.31 1014.66 1013.98 1013.30 1012.62 1011.95 1011.30 1010.66 1010.02
1019.25 1018.41 1017.50 1016.55 1015.64 1014.80 1014.08 1013.52 1013.11 1012.88 1012.83 1012.94 1013.20 1013.58 1014.06 1014.61 1015.21 1015.81 1016.40 1016.95 1017.43 1017.83 1018.14 1018.36 1018.48 1018.52 1018.48 1018.38 1018.21 1017.98 1017.70 1017.35 1016.93 1016.45 1015.91 1015.31 1014.67 1014.00 1013.31 1012.62 1011.94 1011.25 1010.56 1009.86
1018.42 1017.57 1016.67 1015.78 1014.92 1014.16 1013.53 1013.05 1012.74 1012.61 1012.64 1012.83 1013.15 1013.58 1014.09 1014.64 1015.21 1015.78 1016.31 1016.80 1017.22 1017.57 1017.84 1018.04 1018.16 1018.22 1018.22 1018.15 1018.02 1017.83 1017.58 1017.26 1016.86 1016.40 1015.87 1015.28 1014.65 1013.99 1013.30 1012.61 1011.91 1011.20 1010.47 1009.71
1017.40 1016.58 1015.75 1014.95 1014.21 1013.59 1013.08 1012.73 1012.53 1012.49 1012.60 1012.85 1013.20 1013.64 1014.13 1014.65 1015.18 1015.69 1016.17 1016.60 1016.98 1017.29 1017.55 1017.75 1017.90 1017.98 1018.01 1017.99 1017.89 1017.74 1017.51 1017.20 1016.81 1016.35 1015.82 1015.23 1014.60 1013.94 1013.26 1012.57 1011.86 1011.14 1010.39 1009.60
1016.28 1015.51 1014.78 1014.13 1013.56 1013.10 1012.76 1012.55 1012.47 1012.52 1012.68 1012.95 1013.30 1013.71 1014.16 1014.63 1015.09 1015.55 1015.97 1016.36 1016.72 1017.03 1017.30 1017.52 1017.70 1017.83 1017.90 1017.91 1017.85 1017.72 1017.49 1017.19 1016.80 1016.32 1015.78 1015.18 1014.54 1013.87 1013.19 1012.50 1011.80 1011.08 1010.32 1009.52
1015.12 1014.44 1013.86 1013.37 1012.99 1012.72 1012.54 1012.48 1012.51 1012.63 1012.82 1013.09 1013.41 1013.77 1014.16 1014.56 1014.96 1015.36 1015.75 1016.12 1016.47 1016.79 1017.09 1017.36 1017.58 1017.76 1017.87 1017.92 1017.89 1017.76 1017.54 1017.23 1016.82 1016.32 1015.75 1015.13 1014.47 1013.79 1013.10 1012.41 1011.72 1011.00 1010.26 1009.47
1014.01 1013.46 1013.04 1012.74 1012.54 1012.45 1012.43 1012.49 1012.60 1012.77 1012.97 1013.21 1013.48 1013.77 1014.09 1014.43 1014.77 1015.13 1015.50 1015.87 1016.23 1016.59 1016.93 1017.24 1017.52 1017.74 1017.90 1017.98 1017.96 1017.85 1017.62 1017.29 1016.86 1016.34 1015.74 1015.09 1014.41 1013.71 1013.01 1012.32 1011.63 1010.94 1010.22 1009.45
1013.01 1012.60 1012.35 1012.23 1012.22 1012.28 1012.40 1012.55 1012.71 1012.89 1013.08 1013.27 1013.48 1013.71 1013.96 1014.24 1014.55 1014.89 1015.25 1015.63 1016.03 1016.42 1016.80 1017.16 1017.48 1017.74 1017.93 1018.03 1018.03 1017.92 1017.69 1017.34 1016.89 1016.35 1015.73 1015.06 1014.36 1013.64 1012.94 1012.24 1011.56 1010.88 1010.20 1009.47
1012.13 1011.89 1011.81 1011.86 1012.00 1012.20 1012.41 1012.61 1012.80 1012.97 1013.12 1013.26 1013.41 1013.58 1013.78 1014.02 1014.31 1014.64 1015.02 1015.42 1015.84 1016.28 1016.69 1017.08 1017.43 1017.71 1017.92 1018.02 1018.03 1017.91 1017.68 1017.34 1016.89 1016.34 1015.72 1015.04 1014.33 1013.61 1012.90 1012.20 1011.53 1010.87 1010.21 1009.53
1011.39 1011.32 1011.41 1011.62 1011.88 1012.17 1012.44 1012.66 1012.84 1012.98 1013.08 1013.17 1013.27 1013.39 1013.56 1013.79 1014.07 1014.42 1014.81 1015.24 1015.69 1016.14 1016.58 1016.98 1017.32 1017.60 1017.80 1017.91 1017.91 1017.80 1017.58 1017.25 1016.81 1016.28 1015.68 1015.02 1014.32 1013.61 1012.90 1012.21 1011.55 1010.91 1010.28 1009.64
1010.80 1010.90 1011.15 1011.48 1011.84 1012.18 1012.47 1012.69 1012.84 1012.93 1012.99 1013.03 1013.08 1013.18 1013.34 1013.57 1013.87 1014.24 1014.65 1015.10 1015.56 1016.01 1016.44 1016.82 1017.15 1017.40 1017.58 1017.67 1017.66 1017.56 1017.35 1017.05 1016.65 1016.17 1015.61 1014.99 1014.33 1013.65 1012.96 1012.29 1011.64 1011.02 1010.41 1009.81
1010.35 1010.62 1011.00 1011.43 1011.85 1012.21 1012.50 1012.69 1012.80 1012.84 1012.85 1012.85 1012.89 1012.98 1013.15 1013.40 1013.72 1014.11 1014.54 1015.00 1015.45 1015.89 1016.28 1016.62 1016.90 1017.11 1017.24 1017.30 1017.28 1017.19 1017.01 1016.75 1016.42 1016.00 1015.51 1014.96 1014.36 1013.73 1013.09 1012.44 1011.81 1011.20 1010.62 1010.05
1010.04 1010.45 1010.94 1011.44 1011.90 1012.26 1012.52 1012.67 1012.73 1012.72 1012.70 1012.68 1012.71 1012.81 1013.00 1013.27 1013.62 1014.03 1014.47 1014.92 1015.36 1015.75 1016.09 1016.37 1016.58 1016.73 1016.81 1016.84 1016.81 1016.73 1016.59 1016.39 1016.12 1015.79 1015.40 1014.93 1014.41 1013.85 1013.26 1012.65 1012.05 1011.46 1010.89 1010.34
1009.87 1010.40 1010.97 1011.50 1011.96 1012.30 1012.52 1012.62 1012.63 1012.59 1012.53 1012.51 1012.55 1012.67 1012.88 1013.18 1013.56 1013.98 1014.42 1014.86 1015.25 1015.60 1015.87 1016.08 1016.22 1016.30 1016.33 1016.32 1016.29 1016.22 1016.12 1015.99 1015.81 1015.57 1015.27 1014.91 1014.48 1014.00 1013.47 1012.91 1012.34 1011.76 1011.21 1010.67
1009.80 1010.41 1011.03 1011.57 1012.00 1012.31 1012.47 1012.52 1012.49 1012.42 1012.36 1012.33 1012.39 1012.53 1012.78 1013.11 1013.50 1013.93 1014.36 1014.76 1015.11 1015.40 1015.60 1015.74 1015.81 1015.83 1015.82 1015.79 1015.76 1015.71 1015.66 1015.59 1015.49 1015.35 1015.15 1014.89 1014.55 1014.15 1013.69 1013.18 1012.64 1012.10 1011.55 1011.02
1009.79 1010.45 1011.07 1011.60 1011.99 1012.24 1012.35 1012.36 1012.30 1012.21 1012.14 1012.13 1012.20 1012.38 1012.64 1012.99 1013.40 1013.82 1014.23 1014.60 1014.91 1015.14 1015.28 1015.36 1015.38 1015.36 1015.32 1015.28 1015.25 1015.24 1015.24 1015.23 1015.21 1015.15 1015.04 1014.87 1014.61 1014.29 1013.89 1013.43 1012.93 1012.41 1011.87 1011.34
1009.77 1010.44 1011.04 1011.52 1011.86 1012.05 1012.12 1012.08 1012.00 1011.91 1011.85 1011.85 1011.96 1012.16 1012.44 1012.81 1013.21 1013.62 1014.01 1014.35 1014.61 1014.80 1014.90 1014.94 1014.93 1014.89 1014.85 1014.81 1014.81 1014.83 1014.87 1014.92 1014.96 1014.97 1014.94 1014.83 1014.65 1014.38 1014.04 1013.63 1013.16 1012.66 1012.14 1011.61
1009.67 1010.31 1010.86 1011.28 1011.55 1011.69 1011.72 1011.66 1011.57 1011.49 1011.45 1011.48 1011.62 1011.84 1012.15 1012.52 1012.92 1013.32 1013.68 1013.99 1014.22 1014.38 1014.46 1014.48 1014.47 1014.43 1014.40 1014.40 1014.42 1014.48 1014.57 1014.66 1014.76 1014.82 1014.83 1014.77 1014.64 1014.42 1014.12 1013.74 1013.30 1012.82 1012.32 1011.80
1009.40 1009.98 1010.46 1010.82 1011.03 1011.13 1011.13 1011.07 1010.99 1010.93 1010.93 1011.01 1011.17 1011.43 1011.75 1012.12 1012.52 1012.90 1013.24 1013.53 1013.75 1013.89 1013.97 1014.00 1014.00 1014.00 1014.00 1014.04 1014.10 1014.20 1014.33 1014.46 1014.58 1014.68 1014.72 1014.68 1014.58 1014.38 1014.10 1013.75 1013.34 1012.88 1012.39 1011.88
1008.90 1009.41 1009.82 1010.11 1010.28 1010.34 1010.34 1010.30 1010.26 1010.25 1010.30 1010.42 1010.63 1010.92 1011.26 1011.64 1012.03 1012.40 1012.73 1013.01 1013.22 1013.37 1013.46 1013.52 1013.56 1013.60 1013.65 1013.74 1013.85 1013.99 1014.14 1014.30 1014.44 1014.55 1014.59 1014.57 1014.46 1014.28 1014.01 1013.67 1013.27 1012.83 1012.35 1011.86
1008.13 1008.57 1008.91 1009.15 1009.29 1009.35 1009.37 1009.38 1009.39 1009.45 1009.57 1009.76 1010.03 1010.35 1010.72 1011.11 1011.49 1011.86 1012.19 1012.46 1012.68 1012.84 1012.97 1013.07 1013.16 1013.25 1013.36 1013.49 1013.65 1013.83 1014.01 1014.18 1014.32 1014.42 1014.46 1014.42 1014.30 1014.11 1013.84 1013.51 1013.12 1012.68 1012.22 1011.75
1007.10 1007.48 1007.76 1007.97 1008.11 1008.20 1008.27 1008.34 1008.44 1008.59 1008.79 1009.06 1009.38 1009.75 1010.15 1010.56 1010.95 1011.32 1011.65 1011.93 1012.16 1012.35 1012.52 1012.66 1012.80 1012.96 1013.12 1013.31 1013.51 1013.71 1013.91 1014.08 1014.22 1014.30 1014.32 1014.26 1014.12 1013.91 1013.63 1013.29 1012.90 1012.48 1012.03 1011.57
Thickness
5527 5532 5534 5533 5533 5531 5525 5523 5521 5531 5535 5538 5537 5535 5532 5528 5524 5521 5518 5514 5510 5506 5503 5502 5501 5500 5499 5498 5498 5498 5497 5497 5497 5499 5500 5502 5504 5505 5507 5509 5511 5512 5513 5515
5528 5538 5538 5536 5538 5536 5533 5532 5531 5533 5534 5541 5539 5536 5532 5528 5525 5522 5517 5513 5510 5506 5502 5499 5498 5497 5496 5495 5494 5494 5493 5492 5493 5495 5497 5498 5499 5500 5501 5502 5502 5504 5504 5505
5524 5540 5536 5534 5543 5540 5538 5538 5535 5532 5536 5540 5537 5536 5532 5529 5526 5522 5518 5513 5509 5504 5500 5497 5495 5494 5493 5492 5492 5491 5490 5489 5490 5491 5492 5493 5494 5494 5493 5493 5494 5494 5494 5494
5518 5528 5526 5546 5551 5549 5542 5541 5539 5538 5538 5538 5537 5536 5534 5531 5526 5522 5518 5513 5508 5503 5499 5496 5494 5493 5491 5490 5489 5488 5487 5486 5485 5485 5486 5486 5486 5485 5485 5485 5485 5485 5486 5486
5513 5518 5534 5547 5545 5542 5537 5536 5540 5538 5538 5537 5535 5531 5530 5530 5527 5522 5517 5511 5506 5501 5498 5495 5492 5490 5489 5487 5485 5484 5483 5481 5481 5480 5480 5479 5479 5478 5478 5478 5478 5478 5478 5478
5511 5513 5521 5544 5542 5542 5537 5531 5540 5539 5535 5534 5530 5521 5525 5527 5524 5519 5514 5509 5504 5499 5495 5492 5490 5487 5485 5483 5481 5479 5478 5477 5476 5475 5474 5473 5473 5472 5472 5471 5470 5471 5470 5470
5503 5510 5528 5540 5538 5536 5526 5532 5537 5536 5533 5530 5524 5521 5523 5523 5519 5515 5511 5506 5502 5497 5492 5489 5487 5484 5481 5479 5477 5475 5474 5472 5471 5469 5468 5467 5466 5465 5465 5464 5463 5462 5462 5462
5508 5509 5521 5535 5531 5527 5528 5534 5534 5532 5529 5526 5522 5522 5520 5518 5514 5510 5506 5502 5498 5493 5489 5486 5483 5480 5477 5474 5473 5471 5469 5467 5465 5464 5462 5461 5459 5458 5457 5455 5454 5453 5453 5453
5519 5526 5535 5533 5531 5532 5530 5528 5527 5525 5524 5522 5518 5516 5514 5511 5508 5505 5501 5497 5493 5489 5485 5482 5479 5476 5472 5470 5468 5466 5463 5461 5459 5457 5454 5453 5451 5449 5448 5447 5446 5444 5443 5442
5518 5529 5534 5533 5531 5529 5527 5524 5523 5521 5518 5516 5512 5510 5508 5505 5502 5499 5496 5492 5488 5484 5480 5477 5474 5471 5468 5466 5463 5460 5456 5454 5452 5449 5446 5444 5442 5441 5439 5438 5436 5435 5433 5432
5513 5524 5527 5530 5527 5525 5522 5520 5517 5515 5513 5510 5507 5505 5502 5499 5497 5494 5491 5486 5482 5478 5475 5472 5469 5466 5463 5460 5456 5453 5450 5447 5444 5441 5437 5435 5433 5431 5430 5428 5426 5424 5423 5421
5515 5523 5520 5522 5522 5519 5515 5512 5510 5507 5506 5504 5502 5499 5497 5494 5491 5488 5484 5480 5476 5472 5469 5466 5463 5460 5456 5453 5449 5445 5442 5438 5435 5431 5428 5425 5423 5421 5421 5419 5418 5416 5414 5412
5520 5520 5516 5517 5515 5513 5509 5507 5505 5502 5499 5497 5496 5493 5491 5487 5484 5481 5477 5473 5470 5466 5463 5460 5456 5453 5449 5445 5441 5436 5433 5429 5425 5422 5418 5415 5412 5410 5409 5409 5408 5407 5406 5405
5516 5512 5510 5511 5507 5505 5502 5501 5498 5496 5493 5491 5488 5486 5483 5480 5477 5473 5470 5466 5463 5459 5456 5452 5448 5445 5441 5437 5432 5427 5424 5420 5416 5412 5408 5405 5403 5401 5400 5398 5397 5396 5396 5396
5510 5507 5505 5504 5501 5498 5496 5493 5489 5487 5485 5483 5480 5478 5475 5472 5469 5466 5463 5459 5455 5451 5448 5444 5440 5437 5432 5428 5423 5418 5414 5410 5407 5403 5400 5397 5394 5392 5390 5389 5388 5387 5386 5386
5505 5503 5500 5496 5493 5490 5487 5485 5481 5480 5478 5476 5472 5470 5467 5464 5460 5457 5454 5450 5446 5443 5440 5435 5431 5428 5423 5418 5413 5408 5405 5402 5397 5393 5390 5387 5385 5383 5381 5380 5378 5377 5376 5375
5496 5492 5489 5487 5485 5483 5481 5479 5476 5474 5471 5468 5465 5462 5458 5454 5451 5448 5445 5442 5438 5435 5431 5426 5422 5418 5413 5408 5403 5399 5395 5391 5388 5384 5380 5378 5376 5373 5371 5370 5369 5368 5367 5366
5494 5492 5488 5484 5481 5478 5476 5473 5470 5467 5463 5461 5457 5453 5449 5445 5442 5439 5435 5432 5428 5424 5421 5416 5412 5408 5403 5398 5393 5389 5385 5382 5378 5374 5371 5368 5366 5364 5362 5361 5360 5359 5358 5357
5487 5485 5482 5479 5475 5471 5469 5465 5462 5459 5456 5452 5447 5443 5440 5436 5433 5429 5425 5420 5417 5414 5411 5407 5403 5398 5393 5388 5384 5379 5375 5371 5367 5364 5361 5359 5357 5354 5353 5351 5350 5350 5349 5348
5478 5476 5473 5470 5467 5463 5459 5457 5453 5449 5446 5442 5438 5434 5430 5427 5423 5419 5415 5411 5409 5406 5402 5397 5392 5387 5382 5378 5374 5369 5364 5361 5357 5354 5352 5349 5347 5345 5344 5343 5342 5341 5340 5340
5468 5466 5463 5460 5457 5454 5451 5448 5443 5440 5436 5432 5428 5425 5421 5418 5414 5409 5405 5403 5401 5396 5391 5387 5381 5376 5371 5368 5364 5359 5354 5351 5348 5345 5342 5340 5338 5336 5335 5334 5334 5334 5333 5331
5458 5455 5453 5450 5447 5445 5442 5438 5434 5431 5427 5423 5419 5415 5411 5408 5404 5400 5397 5393 5391 5386 5380 5375 5369 5365 5361 5357 5353 5349 5345 5342 5339 5336 5333 5331 5329 5328 5327 5326 5326 5326 5325 5324
5448 5446 5444 5441 5438 5435 5432 5428 5425 5421 5417 5414 5410 5406 5402 5399 5395 5390 5388 5384 5379 5375 5369 5364 5359 5355 5351 5346 5342 5339 5336 5333 5330 5327 5325 5322 5320 5319 5318 5317 5317 5317 5317 5316
5439 5437 5434 5431 5427 5423 5421 5419 5415 5412 5408 5405 5402 5398 5394 5389 5385 5381 5377 5374 5370 5365 5358 5354 5349 5345 5341 5336 5332 5329 5327 5324 5322 5319 5316 5313 5311 5310 5309 5309 5308 5309 5308 5308
5430 5427 5423 5419 5416 5415 5413 5410 5406 5402 5399 5396 5393 5389 5385 5380 5376 5372 5367 5362 5358 5353 5347 5343 5339 5335 5330 5326 5323 5320 5317 5315 5313 5310 5308 5305 5303 5301 5301 5300 5300 5300 5300 5300
5421 5418 5416 5413 5410 5407 5404 5401 5397 5394 5390 5387 5384 5379 5375 5370 5366 5361 5355 5351 5346 5341 5336 5331 5327 5324 5320 5316 5313 5311 5308 5306 5304 5302 5299 5297 5295 5293 5293 5292 5292 5292 5292 5293
5413 5409 5406 5404 5401 5398 5395 5392 5388 5385 5382 5378 5374 5370 5365 5360 5355 5350 5344 5339 5334 5329 5325 5321 5317 5314 5311 5308 5305 5302 5300 5297 5295 5293 5291 5289 5287 5286 5285 5284 5284 5284 5284 5285